Starlink 1526

operational
NORAD ID: 46029 Int'l Des: 2020-055 Owner: SPXS Country: US Constellation: starlink
LEOCIRCULARSTARLINK_TYPE

关于 Starlink 1526

正在加载描述...

实时位置

正在加载3D地球...

即将过境

高度历史

Altitude vs Time

uPlot chart will show altitude changes over time

两行轨道根数

1 46029U 20055C 25308.50648483 .00003267 00000-0 23805-3 0 9998
2 46029 53.0547 328.5857 0001535 82.1955 277.9209 15.06414327290021
Epoch: Nov 4, 2025 • Age: 17 hours

当前状态

高度 548.2 km
速度 7.59 km/s
星下点 29.88°N, 4.8°E
发射日期 Aug 7, 2020
运行时间 5.2 years
类型 internet

技术详情

分类 Payload
质量 260.00 kg
干质量 248.00 kg
总质量 260.00 kg
长度 0.20 m
直径 2.80 m
跨度 9.00 m
形状 Box + pan
制造商 SPXS
平台类型 Starlink
阶段状态 In Orbit
所有者/国家 SPXS/US

大型星座

Loading constellations...